{"data":{"norad_id":65147,"epoch":"2026-09-21T15:38:26.442816Z","epoch_age_seconds":65539,"freshness":"FRESH","line1":"1 65147U 25171R   26264.65169494  .00000665  00000+0  11615-3 0  9996","line2":"2 65147  51.9048   9.0436 0000235  90.0749 270.0240 14.79932179 61940","mean_motion":14.79932179,"eccentricity":2.35e-5,"inclination_deg":51.9048,"raan_deg":9.0436,"arg_perigee_deg":90.0749,"mean_anomaly_deg":270.024,"bstar":0.00011615,"rev_number":6194,"period_min":97.301756150273,"perigee_km":629.37354050206,"apogee_km":629.70290123744,"semimajor_km":7007.6752208697,"source":"CELESTRAK","updated_at":"2026-09-22T09:00:30.155780Z"}}